Meteo Giornale » Osservazioni meteo Italia » Milano-Linate

ore: 01:50 - Osservazioni Meteo Milano-Linate
Lat. 45° 26' N Lon. 9° 17' E Alt. 107 metri s.l.m.

nuvoloso Europe/Rome

9 °C

Nuvoloso

Temp. 24 Ore

3 °C

14 °C

Nord/Nord-Est

7.4 Km/h

Dew point 5 °C

Umidità 75 %

Visibilità  10 Km

Il sole sorge alle ore 06:51

Il sole tramonta alle ore 18:16

Data e Ora Cielo e Fenomeni T °C DP °C Um. % Pres. hPa Vis. km Vento km/h
Oggi h: 01:50 nuvoloso Nuvoloso 9 5 75 1017 10 N/NE 7.4
Oggi h: 01:20 nuvoloso Nuvoloso 9 5 75 1018 10 N 5.5
Oggi h: 00:50 nuvoloso Nuvoloso 8 5 81 1018 10 N/NE 9.3
Ieri h: 23:50 poco_nuvoloso Poco Nuvoloso 9 5 75 1018 10 N 5.5
Ieri h: 23:20 poco_nuvoloso Poco Nuvoloso 10 5 71 1018 10 N 5.5
Ieri h: 22:50 poco_nuvoloso Poco Nuvoloso 9 4 70 1018 10 O/NO 7.4
Ieri h: 22:20 sereno Sereno 9 4 70 1018 10 O 7.4
Ieri h: 21:50 sereno Sereno 10 5 71 1018 10 O 7.4
Ieri h: 20:50 poco_nuvoloso Poco Nuvoloso 11 5 66 1019 10 O 7.4
Ieri h: 19:50 nuvoloso Nuvoloso 11 6 71 1019 10 N 5.5
Ieri h: 19:20 sereno Sereno 11 6 71 1019 10 N 3.7
Ieri h: 18:50 sereno Sereno 12 6 66 1019 10 O/SO 7.4
Ieri h: 18:20 sereno Sereno 12 6 66 1019 10 N 5.5
Ieri h: 17:50 poco_nuvoloso Poco Nuvoloso 13 6 62 1018 10 N 5.5
Ieri h: 17:20 poco_nuvoloso Poco Nuvoloso 14 6 58 1019 10 O 9.3
Ieri h: 16:50 nuvoloso Nuvoloso 14 6 58 1019 10 O 9.3
Ieri h: 16:20 nuvoloso Nuvoloso 14 5 54 1019 10 O 11.1
Ieri h: 14:50 poco_nuvoloso Poco Nuvoloso 14 6 58 1020 10 O 13
Ieri h: 14:20 poco_nuvoloso Poco Nuvoloso 14 6 58 1021 10 O/SO 11.1
Ieri h: 13:50 poco_nuvoloso Poco Nuvoloso 14 5 54 1021 10 O 13
Ieri h: 13:20 poco_nuvoloso Poco Nuvoloso 14 6 58 1022 10 O 11.1
Ieri h: 12:50 poco_nuvoloso Poco Nuvoloso 14 6 58 1022 10 O 11.1
Ieri h: 12:20 poco_nuvoloso Poco Nuvoloso 13 6 62 1022 10 O 14.8
Ieri h: 10:50 poco_nuvoloso Poco Nuvoloso 12 5 62 1023 8 O/NO 9.3
Ieri h: 09:50 foschia Foschia 8 4 75 1024 5 N 1.8
Ieri h: 09:20 foschia Foschia 7 5 87 1024 5 N 1.8
Ieri h: 08:50 foschia Foschia 6 5 93 1024 4 N 3.7
Ieri h: 08:20 foschia Foschia 5 4 93 1024 5 N 1.8
Ieri h: 07:50 foschia Foschia 3 3 100 1024 5 N 1.8
Ieri h: 07:20 foschia Foschia 3 3 100 1024 4 N 1.8
Ieri h: 06:50 foschia Foschia 3 3 100 1024 5 N 1.8
Ieri h: 06:20 sereno Sereno 3 2 93 1024 10 N 1.8
Ieri h: 05:50 sereno Sereno 3 2 93 1024 10 N 1.8
Ieri h: 05:20 sereno Sereno 3 3 100 1025 10 N 1.8
Ieri h: 04:50 sereno Sereno 4 3 93 1025 10 N 1.8
Ieri h: 04:20 sereno Sereno 3 2 93 1025 10 N 3.7
Ieri h: 03:50 sereno Sereno 3 2 93 1025 10 N 1.8
Ieri h: 02:50 sereno Sereno 3 2 93 1026 10 N 3.7
Ieri h: 02:20 sereno Sereno 4 3 93 1026 10 N 0
Ieri h: 01:50 sereno Sereno 4 3 93 1027 10 N 1.8